This demonstration page uses our WeatherBlox Daily Observations layout. Learn more.

Left ArrowRight Arrow

Hourly Observations for August 10, 2018

Temp ( °F °C ) Dew Point ( °F °C ) Humidity (%) Winds ( mph kmh ) Pressure ( in mb ) Visibility ( mi km ) Precip ( " mm )
12:17 am 00:17 Clear 70 21 70 21 100 100 S 6 9 29.97 1015 10 16.0934 N/A
12:36 am 00:36 Clear 70 21 70 21 100 100 SSW 6 9 29.97 1015 10 16.0934 N/A
12:57 am 00:57 Clear 72 22 72 22 100 100 SW 7 11 29.97 1015 10 16.0934 N/A
1:17 am 01:17 Clear 72 22 72 22 100 100 SW 6 9 29.97 1015 10 16.0934 N/A
1:36 am 01:36 Clear 72 22 72 22 100 100 SW 6 9 29.97 1015 10 16.0934 N/A
1:57 am 01:57 Clear 72 22 72 22 100 100 SW 6 9 29.94 1014 10 16.0934 N/A
2:16 am 02:16 Clear 70 21 70 21 100 100 WSW 6 9 29.94 1014 10 16.0934 N/A
2:37 am 02:37 Clear 70 21 70 21 100 100 WSW 3 6 29.94 1014 10 16.0934 N/A
2:56 am 02:56 Clear 70 21 70 21 100 100 W 6 9 29.94 1014 10 16.0934 N/A
3:17 am 03:17 Partly Cloudy 68 20 68 20 100 100 Calm 29.97 1015 10 16.0934 N/A
3:37 am 03:37 Mostly Cloudy 70 21 70 21 100 100 SW 3 6 29.94 1014 10 16.0934 N/A
3:56 am 03:56 Partly Cloudy 70 21 70 21 100 100 SW 5 7 29.94 1014 10 16.0934 N/A
4:17 am 04:17 Clear 70 21 70 21 100 100 Calm 29.94 1014 10 16.0934 N/A
4:36 am 04:36 Clear 68 20 68 20 100 100 Calm 29.97 1015 10 16.0934 N/A
4:56 am 04:56 Partly Cloudy 68 20 68 20 100 100 SE 3 6 29.97 1015 7 11.26538 N/A
5:17 am 05:17 Partly Cloudy 68 20 68 20 100 100 SSW 3 6 29.97 1015 10 16.0934 N/A
5:36 am 05:36 Partly Cloudy 68 20 68 20 100 100 S 5 7 29.97 1015 10 16.0934 N/A
5:57 am 05:57 Clear 68 20 68 20 100 100 Calm 29.97 1015 7 11.26538 N/A
6:16 am 06:16 Clear 68 20 68 20 100 100 SSE 3 6 29.97 1015 7 11.26538 N/A
6:37 am 06:37 Clear 68 20 68 20 100 100 Calm 29.97 1015 7 11.26538 N/A
6:56 am 06:56 Sunny 66 19 66 19 100 100 Calm 29.97 1015 5 8.0467 N/A
7:16 am 07:16 Sunny 66 19 66 19 100 100 S 5 7 29.97 1015 5 8.0467 N/A
7:37 am 07:37 Sunny 68 20 68 20 100 100 S 3 6 29.97 1015 7 11.26538 N/A
7:56 am 07:56 Sunny 68 20 68 20 100 100 S 3 6 29.97 1015 5 8.0467 N/A
8:17 am 08:17 Sunny 70 21 70 21 100 100 Calm 29.97 1015 7 11.26538 N/A
8:36 am 08:36 Sunny 70 21 70 21 100 100 Calm 29.97 1015 7 11.26538 N/A
8:56 am 08:56 Sunny 72 22 72 22 100 100 Calm 29.97 1015 7 11.26538 N/A
9:17 am 09:17 Mostly Cloudy 72 22 72 22 100 100 S 5 7 29.97 1015 10 16.0934 N/A
9:36 am 09:36 Mostly Cloudy 73 23 73 23 100 100 SW 5 7 29.97 1015 10 16.0934 N/A
9:56 am 09:56 Mostly Cloudy 75 24 75 24 100 100 WSW 6 9 29.97 1015 10 16.0934 N/A
10:17 am 10:17 Partly Cloudy 77 25 75 24 94 94 WSW 5 7 29.97 1015 10 16.0934 N/A
10:36 am 10:36 Partly Cloudy 79 26 75 24 89 89 WNW 8 13 29.97 1015 10 16.0934 N/A
10:57 am 10:57 Mostly Cloudy 79 26 73 23 84 84 W 7 11 29.97 1015 10 16.0934 N/A
11:16 am 11:16 Mostly Cloudy 81 27 73 23 79 79 W 6 9 29.97 1015 10 16.0934 N/A
11:36 am 11:36 Cloudy 81 27 73 23 79 79 W 6 9 29.97 1015 10 16.0934 N/A
11:57 am 11:57 Mostly Cloudy 81 27 73 23 79 79 W 7 11 29.97 1015 10 16.0934 N/A
12:16 pm 12:16 Partly Cloudy 82 28 75 24 79 79 NW 7 11 29.97 1015 10 16.0934 N/A
12:37 pm 12:37 Partly Cloudy 82 28 73 23 74 74 NW 7 11 29.97 1015 10 16.0934 N/A
12:56 pm 12:56 Partly Cloudy 82 28 75 24 79 79 WSW 6 9 29.97 1015 10 16.0934 N/A
1:17 pm 13:17 Sunny 84 29 72 22 66 66 W 6 9 29.97 1015 10 16.0934 N/A
1:36 pm 13:36 Sunny 84 29 73 23 70 70 W 6 9 29.94 1014 10 16.0934 N/A
1:57 pm 13:57 Sunny 82 28 72 22 70 70 W 3 6 29.94 1014 10 16.0934 N/A
2:17 pm 14:17 Sunny 84 29 73 23 70 70 W 5 7 29.94 1014 10 16.0934 N/A
2:37 pm 14:37 Sunny 82 28 72 22 70 70 WNW 6 9 29.94 1014 10 16.0934 N/A
2:57 pm 14:57 Sunny 84 29 72 22 66 66 W 6 9 29.94 1014 10 16.0934 N/A
3:17 pm 15:17 Sunny 84 29 72 22 66 66 W 6 9 29.94 1014 10 16.0934 N/A
3:37 pm 15:37 Partly Cloudy 84 29 73 23 70 70 SW 3 6 29.91 1013 10 16.0934 N/A
3:56 pm 15:56 Partly Cloudy 84 29 77 25 79 79 SSW 6 9 29.91 1013 10 16.0934 N/A
4:16 pm 16:16 Sunny 84 29 75 24 74 74 SSW 7 11 29.91 1013 10 16.0934 N/A
4:37 pm 16:37 Partly Cloudy 84 29 75 24 74 74 SSW 6 9 29.91 1013 10 16.0934 N/A
4:56 pm 16:56 Sunny 82 28 73 23 74 74 SW 6 9 29.88 1012 10 16.0934 N/A
5:16 pm 17:16 Partly Cloudy 82 28 73 23 74 74 SW 6 9 29.88 1012 10 16.0934 N/A
5:37 pm 17:37 Sunny 84 29 73 23 70 70 SSW 6 9 29.88 1012 10 16.0934 N/A
5:56 pm 17:56 Mostly Cloudy 82 28 73 23 74 74 WSW 7 11 29.88 1012 10 16.0934 N/A
6:17 pm 18:17 Partly Cloudy 82 28 70 21 66 66 W 8 13 29.88 1012 10 16.0934 N/A
6:36 pm 18:36 Sunny 82 28 70 21 66 66 W 10 17 29.88 1012 10 16.0934 N/A
6:56 pm 18:56 Sunny 82 28 70 21 66 66 W 8 13 29.88 1012 10 16.0934 N/A
7:17 pm 19:17 Sunny 82 28 72 22 70 70 W 3 6 29.88 1012 10 16.0934 N/A
7:36 pm 19:36 Partly Cloudy 81 27 72 22 74 74 WSW 5 7 29.88 1012 10 16.0934 N/A
7:57 pm 19:57 Partly Cloudy 79 26 70 21 74 74 W 5 7 29.88 1012 10 16.0934 N/A
8:16 pm 20:16 Mostly Cloudy 77 25 70 21 79 79 WSW 5 7 29.91 1013 10 16.0934 N/A
8:36 pm 20:36 Mostly Cloudy 77 25 70 21 79 79 W 5 7 29.91 1013 10 16.0934 N/A
8:57 pm 20:57 Mostly Cloudy 75 24 72 22 89 89 WSW 3 6 29.88 1012 10 16.0934 N/A
9:16 pm 21:16 Partly Cloudy 73 23 72 22 94 94 WSW 3 6 29.91 1013 10 16.0934 N/A
9:37 pm 21:37 Clear 73 23 72 22 94 94 Calm 29.91 1013 10 16.0934 N/A
9:57 pm 21:57 Clear 72 22 72 22 100 100 Calm 29.91 1013 10 16.0934 N/A
10:16 pm 22:16 Clear 72 22 72 22 100 100 WSW 3 6 29.94 1014 10 16.0934 N/A
10:37 pm 22:37 Partly Cloudy 70 21 70 21 100 100 Calm 29.91 1013 10 16.0934 N/A
10:56 pm 22:56 Partly Cloudy 70 21 70 21 100 100 Calm 29.91 1013 10 16.0934 N/A
11:16 pm 23:16 Clear 72 22 72 22 100 100 Calm 29.91 1013 10 16.0934 N/A
11:37 pm 23:37 Clear 70 21 70 21 100 100 Calm 29.91 1013 10 16.0934 N/A
11:56 pm 23:56 Clear 68 20 68 20 100 100 WSW 3 6 29.94 1014 10 16.0934 N/A

Powered by AerisWeather